CZ-2C DEB

Satellite information

Favourite Embed

Satellite Type and Status

DEBRISIN ORBIT

Key statistics

Satellite CZ-2C DEB at a glance.

Uptime

4486

Days in orbit

Revolutions

≈ 14.9

Per day

Orbit

SSO

Sun Synchronous Orbit

Inclination

98.2

Latest

Satellite identification and parameters

Extended collection of information and parameters for CZ-2C DEB.

Object identification

Identified? True

Debris? True

Object name: CZ-2C DEB

International designator: 2013-035C

Object number (NORAD): 39204

Object ID (CCSDS): 39204

Country: PEOPLES REPUBLIC OF CHINA (PRC)

Current information (Y/N): Y

RCS size: SMALL

Orbital parameters

Period: 96.601 minutes

Inclination: 98.2242 deg

SMA: 6974.001 km

Apoapsis: 630.594 km

Periapsis: 561.138 km

RAAN: 199.5837 deg

Eccentricy: 0.00497961

Argument of periapsis: 332.8654 deg

Mean anomaly: 26.9961 deg

Mean motion: 14.90663951 rev/day

Mean motion (dot): 0.00022422 rev/day2

B* drag term: 0.0022342275 1/REarth

Two-line elements (TLE)

Creation date: Oct. 26, 2025, 2:54 a.m.

Reference frame: TEME

Reference center: EARTH

Epoch: Oct. 25, 2025, 10:43 p.m. UTC

TLE line 0: 0 CZ-2C DEB

TLE line 1: 1 39204U 13035C 25298.94688469 .00022422 00000-0 22342-2 0 9997

TLE line 2: 2 39204 98.2242 199.5837 0049796 332.8654 26.9961 14.90663951654579

Live tracking on map

Real-time ground track for satellite CZ-2C DEB.

In-orbit conjunctions

A list of the most updated potential collisions computed for object CZ-2C DEB.

Target Orbit TCA Probability of collision Miss distance Type
OBJECT J SSO 2025-04-27 03:42:42 0.0001003097 766.0 (m) UNKNOWN
OBJECT D SSO 2025-03-28 03:04:53 0.0003435759 425.0 (m) UNKNOWN
OBJECT J SSO 2025-03-06 17:52:43 0.0004555203 490.0 (m) UNKNOWN
FENGYUN 1C DEB SSO 2024-11-09 17:28:14 0.0001207649 922.0 (m) DEBRIS
SL-14 R/B LEO 2024-07-30 09:09:08 0.0001050995 402.0 (m) ROCKET BODY

Associated space launch

CZ-2C DEB was lifted into orbit during the mission ‘Long March 2C | Shijian 11-05’, on board a Long March 2 space rocket.

The launch took place on July 15, 2013, 9:27 a.m. from Launch Area 4 (SLS-2 / 603).

For more information about the launch, click the button.

Launch to space Long March 2C | Shijian 11-05
Long March 2C | Shijian 11-05

Agency: N/A

Status: Launch Successful

Launch date: July 15, 2013, 9:27 a.m. UTC

Rocket: Long March 2

Launch pad: Launch Area 4 (SLS-2 / 603)

Location: Jiuquan Satellite Launch Center, People's Republic of China

...

Latest news about this satellite

There are no fresh news available about this satellite. Check back as we update our databases every day.


Newsletter sign-up

Weekly statistics, charts and insights to help you stay on top of the space industry.